{"data":{"norad_id":68791,"epoch":"2026-09-14T09:36:31.112640Z","epoch_age_seconds":541683,"freshness":"STALE","line1":"1 68791U 26087A   26257.40036010  .00000015  00000+0  00000+0 0  9994","line2":"2 68791  54.9549 204.2625 0021536 102.5730  75.4972  2.00577731  2621","mean_motion":2.00577731,"eccentricity":0.0021536,"inclination_deg":54.9549,"raan_deg":204.2625,"arg_perigee_deg":102.573,"mean_anomaly_deg":75.4972,"bstar":0,"rev_number":262,"period_min":717.92615901114,"perigee_km":20123.765999419,"apogee_km":20238.161357862,"semimajor_km":26559.10067864,"source":"CELESTRAK","updated_at":"2026-09-20T09:00:46.122031Z"}}